Weather History for KPUB - May, 2013

Change the Weather History Date:

Tuesday, May 21, 2013

  Actual Average Record
Temperature  
Mean Temperature 59 °F 62 °F  
Max Temperature 75 °F 78 °F 97 °F (2005)
Min Temperature 43 °F 46 °F 33 °F (2001)
Degree Days  
Heating Degree Days 6 4  
Month to date heating degree days 183 141  
Since 1 July heating degree days 5696 5581  
Cooling Degree Days 0 1  
Month to date cooling degree days 31 12  
Year to date cooling degree days 32 14  
Growing Degree Days 9 (Base 50)    
Moisture  
Dew Point 37 °F    
Average Humidity 58    
Maximum Humidity 96    
Minimum Humidity 19    
Precipitation  
Precipitation 0.00 in 0.05 in 1.01 in (1959)
Month to date precipitation 0.73 1.03  
Year to date precipitation 1.93 4.01  
Snow  
Snow 0.00 in 0.00 in 0.20 in (2001)
Month to date snowfall 0.6 0.5  
Since 1 July snowfall 24.4 31.8  
Snow Depth 0.00 in    
Sea Level Pressure  
Sea Level Pressure 29.86 in    
Wind  
Wind Speed 7 mph (East)    
Max Wind Speed 26 mph    
Max Gust Speed 32 mph    
Visibility 10 miles    
Events      
T = Trace of Precipitation, MM = Missing Value Source: NWS Daily Summary

Daily Weather History Graph

Daily Weather History Graph

Search for Another Location

Airport or City:

Trip Planner

Search our weather history database for the weather conditions in past years. The results will help you decide how hot, cold, wet, or windy it might be!

Date:

Astronomy

May. 21, 2013 Rise Set
Actual Time 5:42 AM MDT 8:07 PM MDT
Civil Twilight 5:11 AM MDT 8:37 PM MDT
Nautical Twilight 4:34 AM MDT 9:15 PM MDT
Astronomical Twilight 3:53 AM MDT 9:56 PM MDT
Moon 4:26 PM MDT (5/21) 3:08 AM MDT (5/21)
Length of Visible Light 15h 26m
Length of Day
14h 25m
Waxing Gibbous, 84% of the Moon is Illuminated
May 21
Waxing Gibbous
May 24
Full
May 31
Last Quarter
Jun 8
New
Jun 16
First Quarter

Hourly Weather History & Observations

Time (MDT) Temp. Windchill Dew Point Humidity Pressure Visibility Wind Dir Wind Speed Gust Speed Precip Events Conditions
12:53 AM 51.1 °F - 46.0 °F 83% 29.90 in 10.0 mi WSW 3.5 mph - N/A   Overcast
1:53 AM 48.0 °F - 45.0 °F 89% 29.90 in 10.0 mi West 3.5 mph - N/A   Clear
2:53 AM 48.0 °F - 45.0 °F 89% 29.90 in 10.0 mi Calm Calm - N/A   Clear
3:53 AM 45.0 °F 43.5 °F 42.1 °F 90% 29.94 in 10.0 mi WSW 3.5 mph - N/A   Clear
4:53 AM 43.0 °F - 41.0 °F 93% 29.96 in 10.0 mi Calm Calm - N/A   Clear
5:53 AM 44.1 °F - 42.1 °F 93% 29.97 in 10.0 mi Calm Calm - N/A   Clear
6:53 AM 48.9 °F - 44.1 °F 83% 29.97 in 10.0 mi North 3.5 mph - N/A   Clear
7:53 AM 51.1 °F - 45.0 °F 80% 30.00 in 10.0 mi SW 4.6 mph - N/A   Clear
8:53 AM 55.0 °F - 44.1 °F 67% 29.97 in 10.0 mi Calm Calm - N/A   Clear
9:53 AM 59.0 °F - 43.0 °F 55% 29.92 in 10.0 mi SSE 6.9 mph - N/A   Clear
10:53 AM 60.1 °F - 39.9 °F 47% 29.88 in 10.0 mi South 4.6 mph - N/A   Clear
11:53 AM 64.9 °F - 36.0 °F 34% 29.83 in 10.0 mi Calm Calm - N/A   Clear
12:53 PM 70.0 °F - 34.0 °F 27% 29.78 in 10.0 mi ENE 11.5 mph 17.3 mph N/A   Clear
1:53 PM 71.1 °F - 32.0 °F 24% 29.76 in 10.0 mi ENE 9.2 mph 16.1 mph N/A   Clear
2:53 PM 73.0 °F - 30.9 °F 21% 29.75 in 10.0 mi East 10.4 mph - N/A   Clear
3:53 PM 72.0 °F - 28.9 °F 20% 29.75 in 3.0 mi Variable 6.9 mph - N/A   Haze
4:53 PM 73.9 °F - 28.0 °F 18% 29.73 in 10.0 mi East 3.5 mph - N/A   Scattered Clouds
5:53 PM 72.0 °F - 28.0 °F 20% 29.74 in 10.0 mi SE 10.4 mph 21.9 mph N/A   Scattered Clouds
6:53 PM 70.0 °F - 33.1 °F 26% 29.75 in 10.0 mi NE 21.9 mph 26.5 mph N/A   Mostly Cloudy
7:00 PM 69.8 °F - 33.8 °F 27% 29.88 in 10.0 mi ENE 26.5 mph 32.2 mph N/A   Scattered Clouds
7:53 PM 63.0 °F - 35.1 °F 35% 29.81 in 10.0 mi East 23.0 mph 27.6 mph N/A   Clear
8:53 PM 62.1 °F - 36.0 °F 38% 29.83 in 10.0 mi East 13.8 mph - N/A   Overcast
9:53 PM 57.9 °F - 36.0 °F 44% 29.84 in 10.0 mi ESE 6.9 mph - N/A   Partly Cloudy
10:53 PM 54.0 °F - 34.0 °F 47% 29.87 in 10.0 mi North 9.2 mph - N/A   Partly Cloudy
11:53 PM 50.0 °F - 33.1 °F 52% 29.86 in 10.0 mi NNW 5.8 mph - N/A   Partly Cloudy